Location: Oberwangen
(47.4286°N, 8.9679°E)
Time: 19:51:28
(UTC+00:00)

Cosmos 1953 Rocket - Pass Details

Date: 29 October 2021
Orbit: 603 x 635 km, 82.5° (Epoch: 03 December)

Event Time Altitude Azimuth Distance (km) Brightness Sun altitude
Rises 18:09:36 0° 350° (N) 2,941 7.2 -20.5°
Reaches altitude 10° 18:11:51 10° 351° (N) 2,025 6.3 -20.8°
Maximum altitude 18:16:21 87° 80° (E) 637 3.5 -21.6°
Enters shadow 18:19:35 18° 170° (S) 1,517 5.4 -22.1°
